Etusivu
METAR-TAF:

METAR-TAF

Lentoasemat :

Airlake Airport

Minneapolis / Lakeville, Minnesota, Yhdysvallat

Leveyspiiri: 44-37-40N, Pituuspiiri: 093-13-41W, korkeus merenpinnasta: 293 m

Tämänhetkinen sää

Tämä raportti tehtiin 13 minuuttia sitten, kello 09.15 UTC
Tuuli 4 kn idästä
Lämpötila -8°C
Kosteus 79%
Ilmanpaine 1014 hPa
Näkyvyys: 16.1 km
selkeää

METAR: KLVN 170915Z AUTO 09004KT 10SM CLR M08/M11 A2993 RMK AO2

Aika: 03:28 (09:28 UTC)


TAF: puuttuu

Säähavainnot ja -ennusteet yli 4000 lentoasemalta (METAR- ja TAF-raportit).

Käytössä olevat sääasemat on merkitty karttaan keltaisilla ja punaisilla pisteillä.

Aseta hiiri pisteen päälle nähdäksesi sääaseman nimen.

Klikkaa sitten nähdäksesi säähavainnot ja -ennusteet.

Kartan vaihtaminen: klikkaa mustalla rastilla varustettuja vihreitä pisteitä, niin voit zoomata sisään; viivalla varustettua vihreää pistettä, niin voit zoomata ulos tai vihreitä nuolia, niin pääset viereisille kartoille.


METAR-TAF: